Find NRL PL153

NORAD ID: 2874 Int'l Des: 1967-053 Owner: NRO/NRL Country: US operational
LEOCIRCULAR

Live-Position

3D-Globus wird geladen...

Über NRL PL153

Beschreibung wird geladen...

Nächste Überflüge

Passes for default location (London). Set your location on the main map for personalized predictions.

Höhenverlauf

Loading altitude history...

Zweizeiliger Elementsatz

1 2874U 67053H 26106.53916968 -.00000007 00000-0 33405-4 0 9991
2 2874 69.9733 247.4403 0010020 273.8493 86.1467 13.96819308998177
Epoch: 16. Apr. 2026 • Age: 11 hours

Aktueller Status

Höhe 912.6 km
Geschwindigkeit 7.40 km/s
Subsatellitenpunkt -32.29°S, 129.61°W
Typ other

Most Searched